Location: Bergnerzell
(49.1816°N, 10.2565°E)
Time: 23:53:39
(UTC+00:00)

Meteor 1-24 Rocket - Pass Details

Date: 13 August 2024
Orbit: 790 x 925 km, 81.3° (Epoch: 09 September)

Event Time Altitude Azimuth Distance (km) Brightness Sun altitude
Rises 00:51:32 0° 354° (N) 3,505 7.9 -23.4°
Reaches altitude 10° 00:54:16 10° 4° (N) 2,581 7.2 -23.2°
Maximum altitude 00:59:29 32° 66° (ENE) 1,532 5.4 -22.8°
Drops below altitude 10° 01:04:46 10° 128° (SE) 2,617 6.1 -22.5°
Enters shadow 01:07:08 - 137° (SE) 3,415 6.7 -22.3°
